EW9755 Weather Reports


Display with metric or nautical units.
time (UTC)temp
F
wind
direction
speed
MPH
gust
MPH
rain 1hr
in
rain 24hr
in
rain mn
in
humidity
%
barometer
mb
20260507005220 78 88 7.0 10.0 0.00 0.00 0.00 94 1009.3
20260507004540 78 87 8.0 10.0 0.00 0.00 0.00 94 1009.3
20260507003902 78 85 7.0 12.0 0.00 0.00 0.00 94 1009.3
20260507003220 78 92 9.0 12.0 0.00 0.00 0.00 94 1009.3
20260507002750 78 78 7.0 12.0 0.00 0.00 0.00 94 1009.3
20260507001901 78 90 7.0 12.0 0.00 0.00 0.00 93 1009.3
20260507001431 78 97 7.0 11.0 0.00 0.00 0.00 93 1009.3
20260507000540 78 87 8.0 11.0 0.00 0.00 0.00 93 1009.3
20260506235900 78 73 7.0 10.0 0.00 0.00 0.00 94 1009.3
20260506235433 78 76 6.0 11.0 0.00 0.00 0.00 94 1009.3
20260506234540 78 81 7.0 11.0 0.00 0.00 0.00 93 1009.3
20260506233900 79 86 7.0 10.0 0.00 0.00 0.00 92 1009.3
20260506233221 79 96 6.0 10.0 0.00 0.00 0.00 91 1009.3
20260506232750 79 91 7.0 11.0 0.00 0.00 0.00 90 1009.3
20260506231900 79 105 8.0 11.0 0.00 0.00 0.00 90 1009.0
20260506231220 80 99 6.0 9.0 0.00 0.00 0.00 89 1008.6
20260506230540 80 99 7.0 8.0 0.00 0.00 0.00 89 1008.6
20260506225900 79 64 5.0 8.0 0.00 0.00 0.00 90 1008.6
20260506225221 79 85 5.0 8.0 0.00 0.00 0.00 89 1009.0
20260506224540 79 101 6.0 9.0 0.00 0.00 0.00 90 1008.6
20260506223900 80 80 5.0 11.0 0.00 0.00 0.00 88 1008.6
20260506223220 80 113 9.0 13.0 0.00 0.00 0.00 87 1008.6
20260506222540 80 123 10.0 13.0 0.00 0.00 0.00 86 1008.6
20260506221900 80 108 9.0 11.0 0.00 0.00 0.00 87 1008.6
20260506221220 80 113 9.0 12.0 0.00 0.00 0.00 87 1008.6
20260506220540 79 115 10.0 13.0 0.00 0.00 0.00 88 1008.6
20260506215900 79 110 10.0 13.0 0.00 0.00 0.00 88 1008.6
20260506215220 79 112 12.0 13.0 0.00 0.00 0.00 88 1009.0
20260506214540 79 116 11.0 13.0 0.00 0.00 0.00 88 1009.0
20260506213900 79 113 9.0 14.0 0.00 0.00 0.00 89 1009.0
20260506213220 79 124 12.0 14.0 0.00 0.00 0.00 88 1009.0
20260506212540 79 100 7.0 10.0 0.00 0.00 0.00 90 1009.3
20260506211900 79 107 8.0 16.0 0.00 0.00 0.00 87 1009.3
20260506211220 79 112 13.0 16.0 0.00 0.00 0.00 90 1009.3
20260506210754 79 116 12.0 20.0 0.00 0.00 0.00 91 1009.3
20260506205900 79 111 14.0 20.0 0.00 0.00 0.00 90 1009.3
20260506205220 79 117 14.0 17.0 0.00 0.00 0.00 90 1009.3
20260506204540 79 115 12.0 18.0 0.00 0.00 0.00 89 1009.3
20260506203900 79 106 15.0 18.0 0.00 0.00 0.00 89 1009.3
20260506203221 79 116 12.0 18.0 0.00 0.00 0.00 89 1009.3
20260506202752 79 115 14.0 18.0 0.00 0.00 0.00 89 1009.0
20260506201900 79 114 13.0 17.0 0.00 0.00 0.00 90 1009.3
20260506201222 79 116 14.0 17.0 0.00 0.00 0.00 91 1009.3
20260506200540 79 117 14.0 18.0 0.00 0.00 0.00 91 1009.7
20260506195902 79 115 12.0 16.0 0.00 0.00 0.00 90 1009.7
20260506195220 79 112 12.0 14.0 0.00 0.00 0.00 90 1009.7
20260506194751 79 113 11.0 15.0 0.00 0.00 0.00 90 1009.7
20260506193900 79 118 13.0 15.0 0.00 0.00 0.00 90 1010.0
20260506193432 78 112 9.0 14.0 0.00 0.00 0.00 90 1010.0
20260506192753 78 112 12.0 14.0 0.00 0.00 0.00 90 1010.0
20260506191901 79 122 12.0 14.0 0.00 0.00 0.00 90 1010.3
20260506191220 79 132 10.0 15.0 0.00 0.00 0.00 89 1010.3
20260506190540 79 135 13.0 15.0 0.00 0.00 0.00 90 1010.3
20260506185900 79 127 10.0 14.0 0.00 0.00 0.00 91 1010.7
20260506185222 79 124 11.0 14.0 0.00 0.00 0.00 91 1010.7
20260506184540 78 120 9.0 13.0 0.00 0.00 0.00 91 1010.7
20260506183900 78 122 10.0 13.0 0.00 0.00 0.00 92 1010.7
20260506183220 78 121 9.0 11.0 0.00 0.00 0.00 92 1010.7
20260506182754 78 121 10.0 12.0 0.00 0.00 0.00 92 1010.7
20260506181900 78 117 9.0 11.0 0.00 0.00 0.00 92 1010.7
20260506181220 79 123 7.0 10.0 0.00 0.00 0.00 92 1011.0
20260506180750 79 125 8.0 11.0 0.00 0.00 0.00 91 1011.0
20260506175859 79 122 8.0 13.0 0.00 0.00 0.00 91 1011.0
20260506175219 79 115 10.0 13.0 0.00 0.00 0.00 90 1011.0
20260506174539 79 112 8.0 15.0 0.00 0.00 0.00 91 1011.0
20260506173859 79 115 11.0 15.0 0.00 0.00 0.00 91 1011.0
20260506173219 79 116 11.0 15.0 0.00 0.00 0.00 90 1011.0
20260506172539 79 117 7.0 14.0 0.00 0.00 0.00 90 1011.0
20260506171859 79 120 12.0 14.0 0.00 0.00 0.00 90 1010.7
20260506171219 79 116 10.0 14.0 0.00 0.00 0.00 89 1011.0
20260506170539 79 114 10.0 13.0 0.00 0.00 0.00 89 1011.0
20260506165859 79 119 10.0 15.0 0.00 0.00 0.00 90 1011.0
20260506165219 78 118 12.0 16.0 0.00 0.00 0.00 91 1010.7
20260506164539 78 114 11.0 16.0 0.00 0.00 0.00 91 1011.0
20260506164109 78 120 13.0 16.0 0.00 0.00 0.00 91 1011.0
20260506163219 78 109 11.0 17.0 0.00 0.00 0.00 91 1011.0
20260506162539 78 114 13.0 17.0 0.00 0.00 0.00 92 1010.7
20260506161859 78 112 12.0 16.0 0.00 0.00 0.00 92 1010.7
20260506161219 78 115 13.0 16.0 0.00 0.00 0.00 93 1010.7
20260506160539 78 116 12.0 14.0 0.00 0.00 0.00 93 1010.3
20260506155859 78 121 9.0 13.0 0.00 0.00 0.00 94 1010.3
20260506155219 78 125 11.0 15.0 0.00 0.00 0.00 94 1010.3
20260506154748 78 130 11.0 14.0 0.00 0.00 0.00 95 1010.3
20260506154109 78 120 11.0 15.0 0.00 0.00 0.00 95 1010.3
20260506153430 78 116 12.0 19.0 0.00 0.00 0.00 94 1010.0
20260506152751 78 118 15.0 20.0 0.00 0.00 0.00 94 1010.3
20260506151859 78 118 16.0 19.0 0.00 0.00 0.00 94 1010.0
20260506151219 78 118 12.0 18.0 0.00 0.00 0.00 94 1010.0
20260506150539 78 117 15.0 20.0 0.00 0.00 0.00 94 1010.0
20260506145900 78 117 15.0 19.0 0.00 0.00 0.00 94 1010.0
20260506145434 78 108 14.0 19.0 0.00 0.00 0.00 94 1010.0
20260506144749 78 108 16.0 18.0 0.00 0.00 0.00 94 1010.0
20260506143901 78 115 12.0 15.0 0.00 0.00 0.00 95 1010.0
20260506143220 78 112 12.0 16.0 0.00 0.00 0.00 95 1010.0
20260506142540 78 117 14.0 17.0 0.00 0.00 0.00 95 1010.0
20260506141900 78 114 13.0 17.0 0.00 0.00 0.00 95 1010.0
20260506141220 78 110 13.0 18.0 0.00 0.00 0.00 94 1010.0
20260506140542 78 109 14.0 18.0 0.00 0.00 0.00 94 1010.0
20260506135900 78 108 11.0 17.0 0.00 0.00 0.00 95 1009.7
20260506135220 78 103 11.0 16.0 0.00 0.00 0.00 95 1009.7
20260506134540 78 104 11.0 16.0 0.00 0.00 0.00 95 1009.7
20260506133900 78 111 13.0 18.0 0.00 0.00 0.00 95 1009.7
20260506133220 77 114 12.0 17.0 0.00 0.00 0.00 95 1009.7
20260506132540 78 111 11.0 17.0 0.00 0.00 0.00 95 1009.7
20260506131900 77 117 14.0 16.0 0.00 0.00 0.00 95 1009.7
20260506131220 77 112 10.0 13.0 0.00 0.00 0.00 96 1009.7
20260506130754 77 120 11.0 13.0 0.00 0.00 0.00 96 1010.0
20260506130109 77 121 10.0 12.0 0.00 0.00 0.00 96 1010.0
20260506125430 77 123 9.0 14.0 0.00 0.00 0.00 96 1009.7
20260506124540 77 123 10.0 14.0 0.00 0.00 0.00 97 1009.7
20260506124111 77 117 9.0 12.0 0.00 0.00 0.00 97 1009.7
20260506123432 77 125 9.0 12.0 0.00 0.00 0.00 97 1009.7
20260506122542 77 124 8.0 12.0 0.00 0.00 0.00 96 1009.7
20260506122113 77 126 10.0 14.0 0.00 0.00 0.00 96 1009.7
20260506121434 77 128 9.0 16.0 0.00 0.00 0.00 96 1009.3
20260506120540 77 122 12.0 14.0 0.00 0.00 0.00 96 1009.3
20260506115902 77 125 9.0 16.0 0.00 0.00 0.00 96 1009.3
20260506115221 77 123 12.0 16.0 0.00 0.00 0.00 96 1009.3
20260506114540 77 122 13.0 15.0 0.00 0.00 0.00 96 1009.0
20260506113900 77 123 12.0 14.0 0.00 0.00 0.00 96 1009.3
20260506113222 77 122 11.0 14.0 0.00 0.00 0.00 96 1009.3
20260506112540 77 123 9.0 14.0 0.00 0.00 0.00 96 1009.3
20260506112114 77 123 10.0 14.0 0.00 0.00 0.00 96 1009.0
20260506111429 77 117 11.0 16.0 0.00 0.00 0.00 96 1009.0
20260506110540 77 120 10.0 16.0 0.00 0.00 0.00 96 1009.0
20260506105900 77 121 13.0 16.0 0.00 0.00 0.00 96 1009.0
20260506105431 77 121 10.0 16.0 0.00 0.00 0.00 96 1009.0
20260506104752 77 117 12.0 17.0 0.00 0.00 0.00 96 1009.0
20260506103900 77 123 13.0 17.0 0.00 0.00 0.00 96 1009.0
20260506103220 77 121 11.0 13.0 0.00 0.00 0.00 96 1009.0
20260506102540 77 132 10.0 13.0 0.00 0.00 0.00 96 1009.0
20260506101900 77 127 11.0 15.0 0.00 0.00 0.00 96 1009.0
20260506101220 77 126 10.0 15.0 0.00 0.00 0.00 96 1009.0
20260506100540 77 127 10.0 14.0 0.00 0.00 0.00 95 1008.6
20260506095901 77 121 8.0 17.0 0.00 0.00 0.00 95 1008.6
20260506095220 77 117 13.0 17.0 0.00 0.00 0.00 96 1008.6
20260506094540 77 120 14.0 18.0 0.00 0.00 0.00 96 1008.6
20260506094113 77 117 14.0 18.0 0.00 0.00 0.00 96 1008.6
20260506093220 77 119 14.0 17.0 0.00 0.00 0.00 96 1008.6
20260506092540 77 115 12.0 16.0 0.00 0.00 0.00 96 1008.6
20260506091900 77 117 12.0 17.0 0.00 0.00 0.00 96 1008.6
20260506091220 77 113 12.0 17.0 0.00 0.00 0.00 96 1008.6
20260506090540 77 116 14.0 17.0 0.00 0.00 0.00 96 1008.6
20260506085900 77 118 13.0 17.0 0.00 0.00 0.00 96 1008.6
20260506085220 77 115 14.0 17.0 0.00 0.00 0.00 96 1008.6
20260506084753 77 114 10.0 14.0 0.00 0.00 0.00 96 1008.6
20260506083900 77 119 9.0 12.0 0.00 0.00 0.00 97 1009.0
20260506083220 77 128 9.0 13.0 0.00 0.00 0.00 97 1009.0
20260506082750 77 133 9.0 12.0 0.00 0.00 0.00 97 1009.0
20260506081900 77 129 10.0 12.0 0.00 0.00 0.00 97 1009.3
20260506081220 77 124 9.0 12.0 0.00 0.00 0.00 97 1009.3
20260506080540 77 129 10.0 13.0 0.00 0.00 0.00 97 1009.0
20260506073220 77 136 8.0 12.0 0.00 0.00 0.00 96 1009.7
20260506072750 77 138 7.0 12.0 0.00 0.00 0.00 96 1009.7
20260506071900 77 134 7.0 12.0 0.00 0.00 0.00 96 1009.7
20260506071220 77 138 8.0 10.0 0.00 0.00 0.00 96 1009.7
20260506070540 77 139 7.0 13.0 0.00 0.00 0.00 96 1010.0
20260506061900 77 131 12.0 16.0 0.00 0.00 0.00 96 1009.7
20260506061220 77 127 11.0 19.0 0.00 0.00 0.00 96 1009.7
20260506060540 77 127 13.0 19.0 0.00 0.00 0.00 96 1009.7
20260506051221 77 128 14.0 20.0 0.00 0.00 0.00 95 1009.3
20260506050540 77 124 14.0 20.0 0.00 0.00 0.00 95 1009.3
20260506044540 77 127 15.0 23.0 0.00 0.00 0.00 95 1009.7
20260506044111 77 126 16.0 23.0 0.00 0.00 0.00 94 1009.7
20260506043220 77 128 16.0 22.0 0.00 0.00 0.00 94 1009.3
20260506042540 77 127 16.0 20.0 0.00 0.00 0.00 94 1009.3
20260506041900 77 126 15.0 22.0 0.00 0.00 0.00 94 1009.7
20260506041220 77 126 14.0 20.0 0.00 0.00 0.00 94 1009.3
20260506040540 77 128 15.0 22.0 0.00 0.00 0.00 94 1009.7
20260506035900 77 130 18.0 24.0 0.00 0.00 0.00 94 1009.7
20260506035220 77 128 15.0 24.0 0.00 0.00 0.00 94 1009.7
20260506034751 77 127 14.0 22.0 0.00 0.00 0.00 94 1009.7
20260506033900 77 128 16.0 22.0 0.00 0.00 0.00 94 1009.3
20260506033220 77 127 15.0 22.0 0.00 0.00 0.00 94 1009.7
20260506032540 77 126 16.0 21.0 0.00 0.00 0.00 94 1009.3
20260506031900 77 125 15.0 22.0 0.00 0.00 0.00 94 1009.3
20260506031220 77 127 15.0 22.0 0.00 0.00 0.00 94 1009.3
20260506030540 77 124 16.0 22.0 0.00 0.00 0.00 94 1009.3
20260506025900 77 127 16.0 23.0 0.00 0.00 0.00 94 1009.3
20260506025431 77 129 17.0 21.0 0.00 0.00 0.00 94 1009.3
20260506024540 77 130 17.0 21.0 0.00 0.00 0.00 94 1009.0
20260506023900 77 127 17.0 22.0 0.00 0.00 0.00 94 1009.0
20260506023220 77 130 16.0 24.0 0.00 0.00 0.00 94 1009.0
20260506022540 77 129 18.0 22.0 0.00 0.00 0.00 94 1009.0
20260506021900 77 128 17.0 22.0 0.00 0.00 0.00 94 1008.6
20260506021220 77 129 16.0 24.0 0.00 0.00 0.00 94 1008.6
20260506020540 77 129 18.0 24.0 0.00 0.00 0.00 94 1008.6
20260506015900 77 127 17.0 23.0 0.00 0.00 0.00 94 1008.6
20260506015220 77 129 18.0 23.0 0.00 0.00 0.00 94 1008.3
20260506014540 77 127 16.0 23.0 0.00 0.00 0.00 94 1008.3
20260506013900 77 128 15.0 23.0 0.00 0.00 0.00 94 1008.3
20260506013220 77 123 18.0 23.0 0.00 0.00 0.00 94 1008.0
20260506012540 77 122 15.0 21.0 0.00 0.00 0.00 94 1008.0
20260506011902 77 122 15.0 21.0 0.00 0.00 0.00 94 1008.0
20260506011220 77 122 13.0 18.0 0.00 0.00 0.00 94 1008.0
20260506010540 77 125 12.0 20.0 0.00 0.00 0.00 93 1007.6
20260506010112 77 124 13.0 18.0 0.00 0.00 0.00 93 1007.6